{"data":{"norad_id":48779,"intl_designator":"2021-045N","name":"ONEWEB-0229","alt_names":[],"object_type":"PAYLOAD","status":"ACTIVE","operator":null,"country":"UK","launch_date":"2021-05-28","launch_site_code":"VOSTO","launch_vehicle":null,"mission":null,"orbit_class":"UNKNOWN","rcs_meters":null,"size_class":null,"mass_kg":null,"dimensions":null,"purposes":["comms"],"wikipedia_slug":null,"has_3d_model":false,"image_url":null,"decayed_at":null,"tle_current":{"epoch":"2026-05-25T02:13:05.850048Z","epoch_age_seconds":63532,"freshness":"FRESH","line1":"1 48779U 21045N   26145.09242882  .00000124  00000+0  29582-3 0  9995","line2":"2 48779  87.8998 263.7906 0001886  95.8465 264.2881 13.15547358241379","mean_motion":13.15547358,"eccentricity":0.0001886,"inclination_deg":87.8998,"raan_deg":263.7906,"arg_perigee_deg":95.8465,"mean_anomaly_deg":264.2881,"bstar":0.00029582,"rev_number":24137,"period_min":109.46014153297,"perigee_km":1200.3457746949,"apogee_km":1203.2049176319,"semimajor_km":7579.9123461634,"source":"CELESTRAK","updated_at":"2026-05-25T13:38:22.443897Z"}}}